Reno, NV

10:26 PM PST on January 16, 2017 (GMT -0800)
Reno-Tahoe International

Weather History for KRNO - October, 2013

Change the Weather History Date:

Tuesday, October 29, 2013

  Actual Average Record
Temperature  
Mean Temperature 38 °F 49 °F  
Max Temperature 39 °F 63 °F 79 °F (1937)
Min Temperature 36 °F 35 °F 8 °F (1971)
Degree Days  
Heating Degree Days 27 16  
Month to date heating degree days 374 314  
Since 1 July heating degree days 459 404  
Cooling Degree Days 0 0  
Month to date cooling degree days 0 4  
Year to date cooling degree days 1174 838  
Moisture  
Dew Point 33 °F    
Average Humidity 80    
Maximum Humidity 89    
Minimum Humidity 70    
Precipitation  
Precipitation 0.02 in 0.02 in 0.49 in (1945)
Month to date precipitation 0.06 0.47  
Year to date precipitation 3.12 5.51  
Snow  
Snow 0.00 in 0.10 in T in (1991)
Month to date snowfall 0.0 0.3  
Since 1 July snowfall T 0.4  
Since 1 September snowfall 0.0 0.4  
Snow Depth 0.00 in    
Sea Level Pressure  
Sea Level Pressure 29.94 in    
Wind  
Wind Speed 5 mph (NE)    
Max Wind Speed 17 mph    
Max Gust Speed 20 mph    
Visibility 10 miles    
Events Rain    
T = Trace of Precipitation, MM = Missing Value Source: NWS Daily Summary

Daily Weather History Graph

Daily Weather History Graph

Search for Another Location

Airport or City:

Trip Planner

Search our weather history database for the weather conditions in past years. The results will help you decide how hot, cold, wet, or windy it might be!

Date:

Astronomy

Oct. 29, 2013 Rise Set
Actual Time 7:24 AM PDT 6:00 PM PDT
Civil Twilight 6:56 AM PDT 6:28 PM PDT
Nautical Twilight 6:24 AM PDT 6:59 PM PDT
Astronomical Twilight 5:53 AM PDT 7:31 PM PDT
Moon 2:20 AM PDT (10/29) 3:15 PM PDT (10/29)
Length of Visible Light 11h 31m
Length of Day
10h 36m
Waning Crescent, 24% of the Moon is Illuminated
Oct 29
Waning Crescent
Nov 3
New
Nov 9
First Quarter
Nov 17
Full
Nov 25
Last Quarter

Hourly Weather History & Observations

Time (PDT) Temp. Windchill Dew Point Humidity Pressure Visibility Wind Dir Wind Speed Gust Speed Precip Events Conditions
12:55 AM 39.0 °F 31.4 °F 33.1 °F 79% 29.77 in 10.0 mi NE 12.7 mph - N/A   Mostly Cloudy
1:50 AM 37.4 °F 28.2 °F 33.8 °F 87% 29.82 in 10.0 mi ENE 16.1 mph - 0.00 in Rain Light Rain
1:55 AM 37.0 °F 29.3 °F 33.1 °F 86% 29.80 in 10.0 mi ENE 11.5 mph - 0.00 in Rain Light Rain
2:10 AM 37.4 °F 30.3 °F 33.8 °F 87% 29.82 in 10.0 mi ENE 10.4 mph - 0.01 in Rain Light Rain
2:55 AM 37.0 °F 31.6 °F 34.0 °F 89% 29.80 in 10.0 mi NE 6.9 mph - 0.02 in Rain Light Rain
3:55 AM 37.0 °F 32.4 °F 33.1 °F 86% 29.81 in 10.0 mi ENE 5.8 mph - 0.00 in   Mostly Cloudy
4:55 AM 37.0 °F 32.4 °F 32.0 °F 82% 29.81 in 10.0 mi NE 5.8 mph - N/A   Mostly Cloudy
5:55 AM 37.0 °F 30.4 °F 32.0 °F 82% 29.83 in 10.0 mi NE 9.2 mph - N/A   Mostly Cloudy
6:55 AM 37.0 °F 30.4 °F 32.0 °F 82% 29.85 in 10.0 mi NE 9.2 mph - N/A   Mostly Cloudy
7:55 AM 37.0 °F 30.4 °F 32.0 °F 82% 29.86 in 10.0 mi NE 9.2 mph - N/A   Mostly Cloudy
8:55 AM 37.0 °F 31.6 °F 32.0 °F 82% 29.90 in 10.0 mi ENE 6.9 mph - 0.00 in Rain Light Rain
9:49 AM 37.4 °F 30.3 °F 33.8 °F 87% 29.94 in 10.0 mi NNE 10.4 mph - 0.00 in Rain Light Rain
9:55 AM 37.0 °F 29.8 °F 33.1 °F 86% 29.93 in 10.0 mi NNE 10.4 mph - 0.00 in Rain Light Rain
10:55 AM 36.0 °F 29.6 °F 32.0 °F 86% 29.95 in 10.0 mi NE 8.1 mph - 0.00 in Rain Light Rain
11:55 AM 37.0 °F 32.4 °F 32.0 °F 82% 29.96 in 10.0 mi ENE 5.8 mph - 0.00 in Rain Light Rain
12:55 PM 37.9 °F 34.4 °F 32.0 °F 79% 29.96 in 10.0 mi NNE 4.6 mph - 0.00 in Rain Light Rain
1:55 PM 37.9 °F 31.5 °F 32.0 °F 79% 29.96 in 10.0 mi NE 9.2 mph - 0.00 in   Overcast
2:55 PM 37.9 °F 32.7 °F 32.0 °F 79% 29.98 in 10.0 mi NE 6.9 mph - N/A   Overcast
3:55 PM 39.0 °F 34.8 °F 33.1 °F 79% 30.00 in 10.0 mi NE 5.8 mph - 0.00 in Rain Light Rain
4:55 PM 37.9 °F 34.4 °F 33.1 °F 83% 30.01 in 10.0 mi NNE 4.6 mph - 0.00 in   Overcast
5:32 PM 37.4 °F 34.9 °F 33.8 °F 87% 30.01 in 10.0 mi NNE 3.5 mph - N/A   Mostly Cloudy
5:55 PM 37.9 °F - 33.1 °F 83% 30.01 in 10.0 mi Calm Calm - 0.00 in   Mostly Cloudy
6:55 PM 37.9 °F - 33.1 °F 83% 30.03 in 10.0 mi Calm Calm - N/A   Mostly Cloudy
7:19 PM 39.2 °F 37.0 °F 33.8 °F 81% 30.03 in 10.0 mi East 3.5 mph - N/A   Mostly Cloudy
7:55 PM 39.0 °F - 33.1 °F 79% 30.04 in 10.0 mi Calm Calm - N/A   Mostly Cloudy
8:20 PM 39.2 °F - 32.0 °F 75% 30.04 in 10.0 mi Calm Calm - N/A   Mostly Cloudy
8:55 PM 39.0 °F - 30.9 °F 73% 30.06 in 10.0 mi Calm Calm - N/A   Mostly Cloudy
9:55 PM 39.0 °F - 32.0 °F 76% 30.08 in 10.0 mi Calm Calm - N/A   Mostly Cloudy
10:55 PM 39.0 °F - 32.0 °F 76% 30.09 in 10.0 mi Calm Calm - N/A   Mostly Cloudy
11:55 PM 39.0 °F - 32.0 °F 76% 30.09 in 10.0 mi Calm Calm - N/A   Mostly Cloudy